Change the Weather History Date:

Monday, December 16, 2013

  Actual Average Record
Temperature  
Mean Temperature 22 °F -  
Max Temperature 28 °F 40 °F 60 °F (2008)
Min Temperature 8 °F 23 °F 8 °F (2013)
Degree Days  
Heating Degree Days 44    
Moisture  
Dew Point 11 °F    
Average Humidity 59    
Maximum Humidity 89    
Minimum Humidity 38    
Precipitation  
Precipitation 0.00 in - - ()
Sea Level Pressure  
Sea Level Pressure 29.99 in    
Wind  
Wind Speed 8 mph (West)    
Max Wind Speed 17 mph    
Max Gust Speed 26 mph    
Visibility 10 miles    
Events      
Averages and records for this station are not official NWS values.
T = Trace of Precipitation, MM = Missing Value Source: NWS Daily Summary

Daily Weather History Graph

Daily Weather History Graph

Search for Another Location

Airport or City:

Trip Planner

Search our weather history database for the weather conditions in past years. The results will help you decide how hot, cold, wet, or windy it might be!

Date:

Astronomy

Dec. 16, 2013 Rise Set
Actual Time 7:07 AM EST 4:13 PM EST
Civil Twilight 6:35 AM EST 4:45 PM EST
Nautical Twilight 5:59 AM EST 5:20 PM EST
Astronomical Twilight 5:25 AM EST 5:55 PM EST
Moon 4:02 PM EST (12/16) 6:11 AM EST (12/16)
Length of Visible Light 10h 10m
Length of Day
9h 06m
Full, 100% of the Moon is Illuminated
Dec 16
Full
Dec 17
Full
Dec 25
Last Quarter
Jan 1
New
Jan 7
First Quarter

Hourly Weather History & Observations

Time (EST) Temp. Windchill Dew Point Humidity Pressure Visibility Wind Dir Wind Speed Gust Speed Precip Events Conditions
12:53 AM 28.0 °F 21.7 °F 19.0 °F 69% 29.77 in 10.0 mi WSW 5.8 mph - N/A   Overcast
1:53 AM 28.0 °F 22.8 °F 19.0 °F 69% 29.77 in 10.0 mi WSW 4.6 mph - N/A   Overcast
2:53 AM 21.9 °F 17.2 °F 19.0 °F 89% 29.79 in 10.0 mi SW 3.5 mph - N/A   Scattered Clouds
3:53 AM 25.0 °F 20.7 °F 19.9 °F 81% 29.80 in 10.0 mi WSW 3.5 mph - N/A   Scattered Clouds
4:53 AM 25.0 °F 17.1 °F 19.9 °F 81% 29.83 in 10.0 mi WSW 6.9 mph - N/A   Mostly Cloudy
5:53 AM 25.0 °F 18.1 °F 19.0 °F 78% 29.85 in 10.0 mi West 5.8 mph - N/A   Clear
6:53 AM 24.1 °F 15.2 °F 16.0 °F 71% 29.88 in 10.0 mi West 8.1 mph - N/A   Partly Cloudy
7:53 AM 24.1 °F 15.2 °F 12.0 °F 60% 29.91 in 10.0 mi West 8.1 mph - N/A   Clear
8:53 AM 26.1 °F 14.0 °F 10.0 °F 51% 29.94 in 10.0 mi West 15.0 mph 23.0 mph N/A   Clear
9:53 AM 27.0 °F 15.6 °F 10.0 °F 49% 29.96 in 10.0 mi West 13.8 mph 21.9 mph N/A   Clear
10:53 AM 28.0 °F 17.0 °F 9.0 °F 45% 29.96 in 10.0 mi WNW 13.8 mph - N/A   Clear
11:53 AM 28.9 °F 19.2 °F 8.1 °F 41% 29.96 in 10.0 mi WNW 11.5 mph 23.0 mph N/A   Clear
12:53 PM 28.0 °F 15.7 °F 7.0 °F 41% 29.97 in 10.0 mi WNW 17.3 mph 26.5 mph N/A   Clear
1:53 PM 28.9 °F 18.2 °F 7.0 °F 40% 29.97 in 10.0 mi WNW 13.8 mph 20.7 mph N/A   Scattered Clouds
2:53 PM 28.0 °F 16.5 °F 5.0 °F 38% 30.01 in 10.0 mi WNW 15.0 mph 24.2 mph N/A   Clear
3:53 PM 26.1 °F 15.6 °F 6.1 °F 43% 30.04 in 10.0 mi WNW 11.5 mph - N/A   Clear
4:53 PM 25.0 °F 15.5 °F 7.0 °F 46% 30.07 in 10.0 mi WNW 9.2 mph - N/A   Clear
5:53 PM 23.0 °F 13.9 °F 7.0 °F 50% 30.10 in 10.0 mi West 8.1 mph - N/A   Clear
6:53 PM 21.9 °F 14.5 °F 6.1 °F 51% 30.13 in 10.0 mi WSW 5.8 mph - N/A   Clear
7:53 PM 21.0 °F 13.4 °F 6.1 °F 53% 30.16 in 10.0 mi West 5.8 mph - N/A   Clear
8:53 PM 15.1 °F 9.4 °F 6.1 °F 68% 30.18 in 10.0 mi East 3.5 mph - N/A   Clear
9:53 PM 19.9 °F 10.1 °F 7.0 °F 57% 30.19 in 10.0 mi West 8.1 mph - N/A   Clear
10:53 PM 19.0 °F 12.3 °F 7.0 °F 59% 30.21 in 10.0 mi SW 4.6 mph - N/A   Clear
11:53 PM 8.1 °F - 3.9 °F 83% 30.22 in 10.0 mi Calm Calm - N/A   Clear